Wetterdaten: Dienstag, 05.05.2015
Datum Zeit Temp. A. Feuchte A. Luftdruck Regen Wind Richtung Richtung Sonnenschein ET UV Solar Taupunkt Windchill Windben Empfang
05.05.2015 00:00 14,4 C 93 % 1009,0 hPa 0,0 l/m 0,0 km/h (0 Bft) S 173 0 min 0,000 mm 0,0 UV-I 0 W/m 13,3 C 14,4 C 0,0 km/h (0 Bft) 0,00 %
05.05.2015 00:15 14,2 C 93 % 1009,0 hPa 0,0 l/m 0,0 km/h (0 Bft) S 173 0 min 0,000 mm 0,0 UV-I 0 W/m 13,1 C 14,2 C 0,0 km/h (0 Bft) 0,00 %
05.05.2015 00:30 14,2 C 94 % 1008,7 hPa 0,0 l/m 0,0 km/h (0 Bft) S 173 0 min 0,000 mm 0,0 UV-I 0 W/m 13,2 C 14,2 C 0,0 km/h (0 Bft) 0,00 %
05.05.2015 00:45 14,1 C 95 % 1008,5 hPa 0,0 l/m 0,0 km/h (0 Bft) O 89 0 min 0,000 mm 0,0 UV-I 0 W/m 13,3 C 14,1 C 0,0 km/h (0 Bft) 0,00 %
05.05.2015 01:00 14,4 C 94 % 1008,5 hPa 0,0 l/m 0,7 km/h (0 Bft) SO 141 0 min 0,000 mm 0,0 UV-I 0 W/m 13,4 C 14,4 C 4,0 km/h (1 Bft) 0,00 %
05.05.2015 01:15 14,5 C 94 % 1008,2 hPa 0,0 l/m 0,0 km/h (0 Bft) S 173 0 min 0,000 mm 0,0 UV-I 0 W/m 13,5 C 14,5 C 0,0 km/h (0 Bft) 0,00 %
05.05.2015 01:30 14,3 C 95 % 1008,3 hPa 0,0 l/m 0,0 km/h (0 Bft) S-SO 167 0 min 0,000 mm 0,0 UV-I 0 W/m 13,5 C 14,3 C 0,0 km/h (0 Bft) 0,00 %
05.05.2015 01:45 14,1 C 95 % 1008,1 hPa 0,0 l/m 0,0 km/h (0 Bft) SO 144 0 min 0,000 mm 0,0 UV-I 0 W/m 13,3 C 14,1 C 0,0 km/h (0 Bft) 0,00 %
05.05.2015 02:00 14,0 C 95 % 1008,3 hPa 0,0 l/m 0,0 km/h (0 Bft) S-SO 155 0 min 0,000 mm 0,0 UV-I 0 W/m 13,2 C 14,0 C 0,0 km/h (0 Bft) 0,00 %
05.05.2015 02:15 14,0 C 95 % 1008,2 hPa 0,0 l/m 0,0 km/h (0 Bft) S 173 0 min 0,000 mm 0,0 UV-I 0 W/m 13,2 C 14,0 C 0,0 km/h (0 Bft) 0,00 %
05.05.2015 02:30 14,3 C 96 % 1007,6 hPa 0,0 l/m 0,0 km/h (0 Bft) SO 145 0 min 0,000 mm 0,0 UV-I 0 W/m 13,7 C 14,3 C 0,0 km/h (0 Bft) 0,00 %
05.05.2015 02:45 14,2 C 96 % 1007,5 hPa 0,0 l/m 0,0 km/h (0 Bft) SO 140 0 min 0,000 mm 0,0 UV-I 0 W/m 13,6 C 14,2 C 0,0 km/h (0 Bft) 0,00 %
05.05.2015 03:00 14,2 C 96 % 1007,2 hPa 0,0 l/m 0,0 km/h (0 Bft) SO 145 0 min 0,000 mm 0,0 UV-I 0 W/m 13,6 C 14,2 C 0,0 km/h (0 Bft) 0,00 %
05.05.2015 03:15 13,8 C 96 % 1007,1 hPa 0,0 l/m 0,4 km/h (0 Bft) O-SO 113 0 min 0,000 mm 0,0 UV-I 0 W/m 13,2 C 13,8 C 4,0 km/h (1 Bft) 0,00 %
05.05.2015 03:30 13,7 C 96 % 1007,1 hPa 0,0 l/m 0,0 km/h (0 Bft) S 173 0 min 0,000 mm 0,0 UV-I 0 W/m 13,1 C 13,7 C 0,0 km/h (0 Bft) 0,00 %
05.05.2015 03:45 13,5 C 96 % 1007,3 hPa 0,0 l/m 0,0 km/h (0 Bft) S 173 0 min 0,000 mm 0,0 UV-I 0 W/m 12,9 C 13,5 C 0,0 km/h (0 Bft) 0,00 %
05.05.2015 04:00 13,5 C 97 % 1007,0 hPa 0,0 l/m 0,4 km/h (0 Bft) S-SO 160 0 min 0,000 mm 0,0 UV-I 0 W/m 13,0 C 13,5 C 4,0 km/h (1 Bft) 0,00 %
05.05.2015 04:15 13,4 C 97 % 1006,6 hPa 0,0 l/m 2,2 km/h (1 Bft) O-SO 109 0 min 0,000 mm 0,0 UV-I 0 W/m 12,9 C 13,4 C 4,0 km/h (1 Bft) 0,00 %
05.05.2015 04:30 13,4 C 97 % 1006,6 hPa 0,0 l/m 0,0 km/h (0 Bft) SO 132 0 min 0,000 mm 0,0 UV-I 0 W/m 12,9 C 13,4 C 0,0 km/h (0 Bft) 0,00 %
05.05.2015 04:45 13,4 C 98 % 1006,6 hPa 0,0 l/m 0,0 km/h (0 Bft) O 101 0 min 0,000 mm 0,0 UV-I 0 W/m 13,1 C 13,4 C 0,0 km/h (0 Bft) 0,00 %
05.05.2015 05:00 13,4 C 97 % 1006,5 hPa 0,0 l/m 0,0 km/h (0 Bft) S 173 0 min 0,000 mm 0,0 UV-I 0 W/m 12,9 C 13,4 C 0,0 km/h (0 Bft) 0,00 %
05.05.2015 05:15 13,5 C 97 % 1006,8 hPa 0,0 l/m 0,0 km/h (0 Bft) O-SO 105 0 min 0,000 mm 0,0 UV-I 0 W/m 13,0 C 13,5 C 0,0 km/h (0 Bft) 0,00 %
05.05.2015 05:30 13,3 C 98 % 1006,5 hPa 0,0 l/m 2,2 km/h (1 Bft) O 89 0 min 0,000 mm 0,0 UV-I 0 W/m 13,0 C 13,3 C 4,0 km/h (1 Bft) 0,00 %
05.05.2015 05:45 13,4 C 97 % 1006,6 hPa 0,0 l/m 4,0 km/h (1 Bft) O 101 0 min 0,000 mm 0,0 UV-I 0 W/m 12,9 C 13,4 C 7,9 km/h (2 Bft) 0,00 %
05.05.2015 06:00 14,2 C 97 % 1006,4 hPa 0,0 l/m 0,0 km/h (0 Bft) S 177 0 min 0,000 mm 0,0 UV-I 2 W/m 13,7 C 14,2 C 0,0 km/h (0 Bft) 0,00 %
05.05.2015 06:15 14,1 C 97 % 1006,3 hPa 0,0 l/m 6,5 km/h (2 Bft) O 101 0 min 0,000 mm 0,0 UV-I 11 W/m 13,6 C 14,1 C 7,9 km/h (2 Bft) 0,00 %
05.05.2015 06:30 14,1 C 98 % 1006,3 hPa 0,0 l/m 5,8 km/h (2 Bft) O 93 0 min 0,000 mm 0,0 UV-I 20 W/m 13,8 C 14,1 C 7,9 km/h (2 Bft) 0,00 %
05.05.2015 06:45 14,0 C 98 % 1006,4 hPa 0,0 l/m 0,0 km/h (0 Bft) S 180 0 min 0,000 mm 0,0 UV-I 24 W/m 13,7 C 14,0 C 0,0 km/h (0 Bft) 0,00 %
05.05.2015 07:00 14,1 C 98 % 1006,2 hPa 0,0 l/m 5,8 km/h (2 Bft) O 82 0 min 0,000 mm 1,0 UV-I 58 W/m 13,8 C 14,1 C 7,9 km/h (2 Bft) 0,00 %
05.05.2015 07:15 14,1 C 98 % 1006,6 hPa 0,0 l/m 6,5 km/h (2 Bft) O-SO 108 0 min 0,000 mm 1,0 UV-I 51 W/m 13,8 C 14,1 C 7,9 km/h (2 Bft) 0,00 %
05.05.2015 07:30 14,2 C 98 % 1006,3 hPa 0,0 l/m 9,4 km/h (2 Bft) O 100 0 min 0,000 mm 1,0 UV-I 95 W/m 13,9 C 12,5 C 11,9 km/h (2 Bft) 0,00 %
05.05.2015 07:45 14,3 C 98 % 1005,8 hPa 0,0 l/m 10,8 km/h (2 Bft) O 100 0 min 0,000 mm 1,0 UV-I 108 W/m 14,0 C 12,0 C 11,9 km/h (2 Bft) 0,00 %
05.05.2015 08:00 14,6 C 97 % 1006,3 hPa 0,0 l/m 7,9 km/h (2 Bft) O-SO 106 0 min 0,000 mm 1,0 UV-I 194 W/m 14,1 C 13,7 C 11,9 km/h (2 Bft) 0,00 %
05.05.2015 08:15 14,7 C 97 % 1006,1 hPa 0,0 l/m 7,2 km/h (2 Bft) O 98 0 min 0,000 mm 1,0 UV-I 222 W/m 14,2 C 14,2 C 11,9 km/h (2 Bft) 0,00 %
05.05.2015 08:30 14,9 C 96 % 1005,9 hPa 0,0 l/m 10,8 km/h (2 Bft) O-SO 103 0 min 0,000 mm 1,0 UV-I 117 W/m 14,3 C 12,7 C 11,9 km/h (2 Bft) 0,00 %
05.05.2015 08:45 15,0 C 96 % 1006,4 hPa 0,0 l/m 5,4 km/h (1 Bft) O-SO 103 0 min 0,000 mm 1,0 UV-I 160 W/m 14,4 C 15,0 C 7,9 km/h (2 Bft) 0,00 %
05.05.2015 09:00 15,2 C 95 % 1005,9 hPa 0,0 l/m 2,9 km/h (1 Bft) O 92 0 min 0,000 mm 1,0 UV-I 165 W/m 14,4 C 15,2 C 4,0 km/h (1 Bft) 0,00 %
05.05.2015 09:15 15,5 C 93 % 1005,7 hPa 0,0 l/m 0,7 km/h (0 Bft) O 93 0 min 0,000 mm 2,0 UV-I 200 W/m 14,4 C 15,5 C 4,0 km/h (1 Bft) 0,00 %
05.05.2015 09:30 16,0 C 90 % 1005,7 hPa 0,0 l/m 1,8 km/h (1 Bft) O-SO 105 15 min 0,000 mm 2,0 UV-I 370 W/m 14,4 C 16,0 C 4,0 km/h (1 Bft) 0,00 %
05.05.2015 09:45 17,1 C 85 % 1005,5 hPa 0,0 l/m 0,0 km/h (0 Bft) O 89 0 min 0,000 mm 3,0 UV-I 298 W/m 14,6 C 17,1 C 0,0 km/h (0 Bft) 0,00 %
05.05.2015 10:00 18,2 C 82 % 1005,3 hPa 0,0 l/m 3,2 km/h (1 Bft) S-SO 160 15 min 0,000 mm 3,0 UV-I 439 W/m 15,1 C 18,2 C 4,0 km/h (1 Bft) 0,00 %
05.05.2015 10:15 18,2 C 81 % 1005,1 hPa 0,0 l/m 4,7 km/h (1 Bft) O-SO 116 0 min 0,000 mm 3,0 UV-I 295 W/m 14,9 C 18,2 C 7,9 km/h (2 Bft) 0,00 %
05.05.2015 10:30 19,1 C 80 % 1005,0 hPa 0,0 l/m 8,3 km/h (2 Bft) O 99 15 min 0,000 mm 4,0 UV-I 559 W/m 15,6 C 18,3 C 11,9 km/h (2 Bft) 0,00 %
05.05.2015 10:45 19,3 C 78 % 1005,0 hPa 0,0 l/m 1,8 km/h (1 Bft) O-SO 123 15 min 0,000 mm 4,0 UV-I 573 W/m 15,4 C 19,3 C 4,0 km/h (1 Bft) 0,00 %
05.05.2015 11:00 19,4 C 80 % 1004,9 hPa 0,0 l/m 4,3 km/h (1 Bft) O 85 0 min 0,000 mm 4,0 UV-I 227 W/m 15,9 C 19,4 C 7,9 km/h (2 Bft) 0,00 %
05.05.2015 11:15 20,3 C 75 % 1004,5 hPa 0,0 l/m 11,5 km/h (2 Bft) O-NO 62 15 min 0,000 mm 5,0 UV-I 626 W/m 15,7 C 18,5 C 15,8 km/h (3 Bft) 0,00 %
05.05.2015 11:30 20,5 C 76 % 1004,6 hPa 0,0 l/m 0,4 km/h (0 Bft) O 83 15 min 0,000 mm 5,0 UV-I 630 W/m 16,1 C 20,5 C 4,0 km/h (1 Bft) 0,00 %
05.05.2015 11:45 21,0 C 75 % 1004,2 hPa 0,0 l/m 0,7 km/h (0 Bft) N-NO 22 15 min 0,000 mm 3,0 UV-I 623 W/m 16,4 C 21,0 C 4,0 km/h (1 Bft) 0,00 %
05.05.2015 12:00 20,9 C 74 % 1004,1 hPa 0,0 l/m 4,7 km/h (1 Bft) S-SO 153 15 min 0,000 mm 5,0 UV-I 514 W/m 16,1 C 20,9 C 7,9 km/h (2 Bft) 0,00 %
05.05.2015 12:15 21,1 C 73 % 1003,9 hPa 0,0 l/m 9,4 km/h (2 Bft) O 100 15 min 0,000 mm 5,0 UV-I 717 W/m 16,1 C 20,0 C 11,9 km/h (2 Bft) 0,00 %
05.05.2015 12:30 21,7 C 72 % 1003,8 hPa 0,0 l/m 6,8 km/h (2 Bft) SO 125 15 min 0,000 mm 5,0 UV-I 671 W/m 16,4 C 21,6 C 11,9 km/h (2 Bft) 0,00 %
05.05.2015 12:45 22,1 C 72 % 1003,4 hPa 0,0 l/m 7,2 km/h (2 Bft) O-SO 108 15 min 0,000 mm 5,0 UV-I 723 W/m 16,8 C 21,8 C 7,9 km/h (2 Bft) 0,00 %
05.05.2015 13:00 22,7 C 68 % 1003,3 hPa 0,0 l/m 8,3 km/h (2 Bft) O-SO 111 15 min 0,000 mm 3,0 UV-I 735 W/m 16,5 C 22,1 C 11,9 km/h (2 Bft) 0,00 %
05.05.2015 13:15 22,5 C 68 % 1003,5 hPa 0,0 l/m 9,4 km/h (2 Bft) O-SO 113 15 min 0,000 mm 5,0 UV-I 557 W/m 16,3 C 21,6 C 11,9 km/h (2 Bft) 0,00 %
05.05.2015 13:30 23,0 C 71 % 1003,2 hPa 0,0 l/m 1,8 km/h (1 Bft) O-SO 122 0 min 0,000 mm 4,0 UV-I 446 W/m 17,4 C 23,0 C 4,0 km/h (1 Bft) 0,00 %
05.05.2015 13:45 24,0 C 62 % 1002,9 hPa 0,0 l/m 4,0 km/h (1 Bft) SO 127 15 min 0,000 mm 5,0 UV-I 731 W/m 16,3 C 24,0 C 4,0 km/h (1 Bft) 0,00 %
05.05.2015 14:00 24,1 C 62 % 1003,0 hPa 0,0 l/m 0,4 km/h (0 Bft) O-SO 118 15 min 0,000 mm 5,0 UV-I 613 W/m 16,4 C 24,1 C 4,0 km/h (1 Bft) 0,00 %
05.05.2015 14:15 24,8 C 60 % 1002,9 hPa 0,0 l/m 4,0 km/h (1 Bft) SO 133 15 min 0,000 mm 5,0 UV-I 839 W/m 16,5 C 24,8 C 7,9 km/h (2 Bft) 0,00 %
05.05.2015 14:30 25,3 C 61 % 1002,9 hPa 0,0 l/m 1,4 km/h (1 Bft) SO 135 15 min 0,000 mm 4,0 UV-I 860 W/m 17,2 C 25,3 C 4,0 km/h (1 Bft) 0,00 %
05.05.2015 14:45 25,7 C 59 % 1002,9 hPa 0,0 l/m 0,0 km/h (0 Bft) SO 125 15 min 0,000 mm 5,0 UV-I 685 W/m 17,1 C 25,7 C 0,0 km/h (0 Bft) 0,00 %
05.05.2015 15:00 26,7 C 56 % 1002,5 hPa 0,0 l/m 0,0 km/h (0 Bft) O-SO 117 15 min 0,000 mm 3,0 UV-I 835 W/m 17,2 C 26,7 C 0,0 km/h (0 Bft) 0,00 %
05.05.2015 15:15 25,9 C 60 % 1003,0 hPa 0,0 l/m 0,0 km/h (0 Bft) W-NW 287 15 min 0,000 mm 3,0 UV-I 452 W/m 17,5 C 25,9 C 0,0 km/h (0 Bft) 0,00 %
05.05.2015 15:30 25,6 C 59 % 1003,0 hPa 0,0 l/m 0,0 km/h (0 Bft) W-NW 285 0 min 0,000 mm 2,0 UV-I 382 W/m 17,0 C 25,6 C 0,0 km/h (0 Bft) 0,00 %
05.05.2015 15:45 25,5 C 60 % 1003,0 hPa 0,0 l/m 0,4 km/h (0 Bft) N-NW 343 0 min 0,000 mm 2,0 UV-I 335 W/m 17,2 C 25,5 C 4,0 km/h (1 Bft) 0,00 %
05.05.2015 16:00 25,8 C 58 % 1002,9 hPa 0,0 l/m 0,0 km/h (0 Bft) N-NW 337 0 min 0,000 mm 2,0 UV-I 321 W/m 16,9 C 25,8 C 0,0 km/h (0 Bft) 0,00 %
05.05.2015 16:15 25,9 C 60 % 1003,2 hPa 0,0 l/m 0,7 km/h (0 Bft) S-SW 213 0 min 0,000 mm 2,0 UV-I 264 W/m 17,5 C 25,9 C 4,0 km/h (1 Bft) 0,00 %
05.05.2015 16:30 25,9 C 58 % 1003,3 hPa 0,0 l/m 0,0 km/h (0 Bft) S-SW 204 0 min 0,000 mm 2,0 UV-I 282 W/m 17,0 C 25,9 C 0,0 km/h (0 Bft) 0,00 %
05.05.2015 16:45 26,7 C 58 % 1003,3 hPa 0,0 l/m 2,9 km/h (1 Bft) W-NW 285 15 min 0,000 mm 2,0 UV-I 517 W/m 17,7 C 26,7 C 4,0 km/h (1 Bft) 0,00 %
05.05.2015 17:00 26,8 C 58 % 1003,6 hPa 0,0 l/m 0,4 km/h (0 Bft) S-SW 192 15 min 0,000 mm 2,0 UV-I 347 W/m 17,8 C 26,8 C 4,0 km/h (1 Bft) 0,00 %
05.05.2015 17:15 26,4 C 58 % 1003,4 hPa 0,0 l/m 1,4 km/h (1 Bft) W-SW 256 15 min 0,000 mm 2,0 UV-I 669 W/m 17,5 C 26,4 C 4,0 km/h (1 Bft) 0,00 %
05.05.2015 17:30 26,3 C 57 % 1003,7 hPa 0,0 l/m 0,4 km/h (0 Bft) W-SW 243 15 min 0,000 mm 1,0 UV-I 523 W/m 17,1 C 26,3 C 4,0 km/h (1 Bft) 0,00 %
05.05.2015 17:45 26,0 C 59 % 1003,8 hPa 0,0 l/m 0,0 km/h (0 Bft) W-SW 238 15 min 0,000 mm 1,0 UV-I 250 W/m 17,4 C 26,0 C 0,0 km/h (0 Bft) 0,00 %
05.05.2015 18:00 25,8 C 60 % 1003,6 hPa 0,0 l/m 0,0 km/h (0 Bft) S-SW 209 0 min 0,000 mm 1,0 UV-I 168 W/m 17,4 C 25,8 C 0,0 km/h (0 Bft) 0,00 %
05.05.2015 18:15 25,4 C 64 % 1003,9 hPa 0,0 l/m 0,0 km/h (0 Bft) S 191 0 min 0,000 mm 1,0 UV-I 141 W/m 18,1 C 25,4 C 0,0 km/h (0 Bft) 0,00 %
05.05.2015 18:30 24,9 C 66 % 1004,0 hPa 0,0 l/m 0,0 km/h (0 Bft) SW 233 15 min 0,000 mm 1,0 UV-I 165 W/m 18,1 C 24,9 C 0,0 km/h (0 Bft) 0,00 %
05.05.2015 18:45 24,6 C 68 % 1004,0 hPa 0,0 l/m 0,0 km/h (0 Bft) SW 232 0 min 0,000 mm 1,0 UV-I 104 W/m 18,3 C 24,6 C 0,0 km/h (0 Bft) 0,00 %
05.05.2015 19:00 24,1 C 65 % 1004,0 hPa 0,0 l/m 0,7 km/h (0 Bft) S 187 0 min 0,000 mm 1,0 UV-I 84 W/m 17,1 C 24,1 C 4,0 km/h (1 Bft) 0,00 %
05.05.2015 19:15 23,5 C 58 % 1004,5 hPa 0,0 l/m 0,0 km/h (0 Bft) S-SW 193 0 min 0,000 mm 0,0 UV-I 63 W/m 14,7 C 23,5 C 0,0 km/h (0 Bft) 0,00 %
05.05.2015 19:30 22,9 C 56 % 1004,9 hPa 0,0 l/m 0,0 km/h (0 Bft) SW 219 0 min 0,000 mm 0,0 UV-I 59 W/m 13,6 C 22,9 C 0,0 km/h (0 Bft) 0,00 %
05.05.2015 19:45 22,5 C 56 % 1005,1 hPa 0,0 l/m 1,4 km/h (1 Bft) SW 233 0 min 0,000 mm 0,0 UV-I 40 W/m 13,3 C 22,5 C 4,0 km/h (1 Bft) 0,00 %
05.05.2015 20:00 21,8 C 59 % 1005,3 hPa 0,0 l/m 2,2 km/h (1 Bft) W-SW 255 15 min 0,000 mm 0,0 UV-I 26 W/m 13,4 C 21,8 C 4,0 km/h (1 Bft) 0,00 %
05.05.2015 20:15 21,3 C 63 % 1005,5 hPa 0,0 l/m 3,2 km/h (1 Bft) W-SW 250 0 min 0,000 mm 0,0 UV-I 0 W/m 14,0 C 21,3 C 4,0 km/h (1 Bft) 0,00 %
05.05.2015 20:30 20,9 C 65 % 1005,8 hPa 0,0 l/m 1,8 km/h (1 Bft) W-SW 256 0 min 0,000 mm 0,0 UV-I 0 W/m 14,1 C 20,9 C 4,0 km/h (1 Bft) 0,00 %
05.05.2015 20:45 20,8 C 65 % 1006,2 hPa 0,0 l/m 2,2 km/h (1 Bft) SW 230 0 min 0,000 mm 0,0 UV-I 0 W/m 14,0 C 20,8 C 4,0 km/h (1 Bft) 0,00 %
05.05.2015 21:00 20,6 C 63 % 1006,5 hPa 0,0 l/m 1,8 km/h (1 Bft) SW 222 0 min 0,000 mm 0,0 UV-I 0 W/m 13,3 C 20,6 C 4,0 km/h (1 Bft) 0,00 %
05.05.2015 21:15 20,6 C 60 % 1006,8 hPa 0,0 l/m 2,2 km/h (1 Bft) SW 214 0 min 0,000 mm 0,0 UV-I 0 W/m 12,6 C 20,6 C 4,0 km/h (1 Bft) 0,00 %
05.05.2015 21:30 20,5 C 59 % 1007,2 hPa 0,0 l/m 1,8 km/h (1 Bft) S-SW 200 0 min 0,000 mm 0,0 UV-I 0 W/m 12,2 C 20,5 C 4,0 km/h (1 Bft) 0,00 %
05.05.2015 21:45 20,5 C 57 % 1007,3 hPa 0,0 l/m 2,2 km/h (1 Bft) SW 222 0 min 0,000 mm 0,0 UV-I 0 W/m 11,7 C 20,5 C 4,0 km/h (1 Bft) 0,00 %
05.05.2015 22:00 19,8 C 62 % 1007,4 hPa 0,0 l/m 0,7 km/h (0 Bft) O-SO 120 0 min 0,000 mm 0,0 UV-I 0 W/m 12,3 C 19,8 C 4,0 km/h (1 Bft) 0,00 %
05.05.2015 22:15 19,6 C 62 % 1007,7 hPa 0,0 l/m 4,7 km/h (1 Bft) W-SW 256 0 min 0,000 mm 0,0 UV-I 0 W/m 12,1 C 19,6 C 7,9 km/h (2 Bft) 0,00 %
05.05.2015 22:30 20,0 C 60 % 1007,5 hPa 0,0 l/m 0,0 km/h (0 Bft) S 189 0 min 0,000 mm 0,0 UV-I 0 W/m 12,0 C 20,0 C 0,0 km/h (0 Bft) 0,00 %
05.05.2015 22:45 19,8 C 60 % 1008,0 hPa 0,0 l/m 3,2 km/h (1 Bft) W-SW 256 0 min 0,000 mm 0,0 UV-I 0 W/m 11,8 C 19,8 C 7,9 km/h (2 Bft) 0,00 %
05.05.2015 23:00 19,4 C 62 % 1008,2 hPa 0,0 l/m 1,8 km/h (1 Bft) SW 218 0 min 0,000 mm 0,0 UV-I 0 W/m 11,9 C 19,4 C 4,0 km/h (1 Bft) 0,00 %
05.05.2015 23:15 19,4 C 60 % 1008,5 hPa 0,0 l/m 4,3 km/h (1 Bft) W-SW 256 0 min 0,000 mm 0,0 UV-I 0 W/m 11,4 C 19,4 C 7,9 km/h (2 Bft) 0,00 %
05.05.2015 23:30 19,5 C 62 % 1008,5 hPa 0,0 l/m 0,0 km/h (0 Bft) S 172 0 min 0,000 mm 0,0 UV-I 0 W/m 12,0 C 19,5 C 0,0 km/h (0 Bft) 0,00 %
05.05.2015 23:45 19,5 C 60 % 1009,7 hPa 0,0 l/m 1,8 km/h (1 Bft) S-SW 195 0 min 0,000 mm 0,0 UV-I 0 W/m 11,5 C 19,5 C 4,0 km/h (1 Bft) 0,00 %
_ Min-Zeit 05:30 15:00 15:00 - 00:00 - - - - - - 23:15 07:45 00:00 00:00
Minimum _ 13,3 C 56 % 1002,5 hPa - 0,0 km/h (0 Bft) - - - - - - 11,4 C 12,0 C 0,0 km/h (0 Bft) 0,00 %
_ Max-Zeit 17:00 04:45 23:45 00:00 11:15 - - 09:30 00:00 11:15 14:30 18:45 17:00 11:15 00:00
Maximum _ 26,8 C 98 % 1009,7 hPa 0,0 l/m 11,5 km/h
O-NO (2 Bft)
- - 15 min 0,000 mm 5,0 UV-I 860 W/m 18,3 C 26,8 C 15,8 km/h
O-NO (3 Bft)
0,00 %
Durchschnitt _ 19,2 C 77 % 1005,7 hPa #0,0 l/m 2,4 km/h (1 Bft) O - #6:45 h #0,000 mm 2,7 UV-I 354 W/m 14,6 C 19,0 C 4,1 km/h (1 Bft) 0,00 %